This is the latest recevied weather packets stored in our database for station/object W8AN. If no packets are shown the sender has not sent any weather packets the latest 10 day(s).
| Time | Temp. | Humidity | Pressure | Rain* | Wind** | Luminosity | Snow |
|---|---|---|---|---|---|---|---|
| 1778177396 | 13.89° C | 35% | 4267.7 hPa | 0 mm | - | 194 W/m² | - |
| 1778177093 | 13.89° C | 39% | 4267.8 hPa | 0 mm | - | 738 W/m² | - |
| 1778176789 | 13.33° C | 38% | 4267.7 hPa | 0 mm | - | 742 W/m² | - |
| 1778176486 | 13.33° C | 39% | 4267.5 hPa | 0 mm | - | 773 W/m² | - |
| 1778176184 | 13.89° C | 42% | 4267.8 hPa | 0 mm | - | 725 W/m² | - |
| 1778175881 | 13.33° C | 39% | 4268.2 hPa | 0 mm | - | 718 W/m² | - |
| 1778175578 | 13.33° C | 40% | 4268.1 hPa | 0 mm | - | 727 W/m² | - |
| 1778175275 | 12.78° C | 41% | 4268.3 hPa | 0 mm | - | 733 W/m² | - |
| 1778174972 | 12.78° C | 42% | 4268 hPa | 0 mm | - | 793 W/m² | - |
| 1778174668 | 12.22° C | 46% | 4268.1 hPa | 0 mm | - | 691 W/m² | - |
| 1778174365 | 12.78° C | 45% | 4268.4 hPa | 0 mm | - | 738 W/m² | - |
| 1778174061 | 12.22° C | 45% | 4268.2 hPa | 0 mm | - | 780 W/m² | - |
| 1778173758 | 12.22° C | 44% | 4268.2 hPa | 0 mm | - | 782 W/m² | - |
| 1778173455 | 12.22° C | 45% | 4268.6 hPa | 0 mm | - | 741 W/m² | - |
| 1778173151 | 12.78° C | 43% | 4268.3 hPa | 0 mm | - | 744 W/m² | - |
| 1778172847 | 12.22° C | 44% | 4268.4 hPa | 0 mm | - | 748 W/m² | - |
| 1778172543 | 12.22° C | 43% | 4268.6 hPa | 0 mm | - | 783 W/m² | - |
| 1778172240 | 12.22° C | 48% | 4268.6 hPa | 0 mm | - | 835 W/m² | - |
| 1778171937 | 12.22° C | 47% | 4268.6 hPa | 0 mm | - | 772 W/m² | - |
| 1778171635 | 12.22° C | 47% | 4268.5 hPa | 0 mm | - | 795 W/m² | - |
| 1778171331 | 12.22° C | 49% | 4268.6 hPa | 0 mm | - | 218 W/m² | - |
| 1778171026 | 12.22° C | 48% | 4268.6 hPa | 0 mm | - | 792 W/m² | - |
| 1778170724 | 11.67° C | 50% | 4268.5 hPa | 0 mm | - | 788 W/m² | - |
| 1778170420 | 11.67° C | 47% | 4268.4 hPa | 0 mm | - | 806 W/m² | - |
| 1778170117 | 11.67° C | 48% | 4268.5 hPa | 0 mm | - | 798 W/m² | - |
* Rain latest hour (hover to see other rain measurements)
** Current wind speed in m/s (hover to see current wind gust speed)